Weather History for KMEM - June, 2014

Change the Weather History Date:

Wednesday, June 18, 2014

  Actual Average Record
Temperature  
Mean Temperature 83 °F 80 °F  
Max Temperature 90 °F 90 °F 103 °F (1953)
Min Temperature 76 °F 71 °F 56 °F (1961)
Degree Days  
Heating Degree Days 0 0  
Month to date heating degree days 0 0  
Since 1 June heating degree days 0 0  
Since 1 July heating degree days 3484 2964  
Cooling Degree Days 18 15  
Month to date cooling degree days 247 242  
Year to date cooling degree days 558 563  
Since 1 June cooling degree days 247 242  
Growing Degree Days 32 (Base 50)    
Moisture  
Dew Point 71 °F    
Average Humidity 71    
Maximum Humidity 82    
Minimum Humidity 59    
Precipitation  
Precipitation T in 0.12 in 2.80 in (1996)
Month to date precipitation 4.34 2.27  
Year to date precipitation 30.30 26.55  
Snow  
Snow 0.00 in 0.00 in - ()
Month to date snowfall 0.0 0.0  
Since 1 June snowfall 0.0 0.0  
Since 1 July snowfall 0.8 3.8  
Snow Depth 0.00 in    
Sea Level Pressure  
Sea Level Pressure 30.05 in    
Wind  
Wind Speed 7 mph (SSW)    
Max Wind Speed 14 mph    
Max Gust Speed 24 mph    
Visibility 10 miles    
Events Rain , Thunderstorm    
T = Trace of Precipitation, MM = Missing Value Source: NWS Daily Summary

Daily Weather History Graph

Daily Weather History Graph

Search for Another Location

Airport or City:

Trip Planner

Search our weather history database for the weather conditions in past years. The results will help you decide how hot, cold, wet, or windy it might be!

Date:

Astronomy

Jun. 18, 2014 Rise Set
Actual Time 5:45 AM CDT 8:16 PM CDT
Civil Twilight 5:15 AM CDT 8:46 PM CDT
Nautical Twilight 4:39 AM CDT 9:23 PM CDT
Astronomical Twilight 3:58 AM CDT 10:03 PM CDT
Moon No Moon Rise 11:56 AM CDT (6/18)
Length of Visible Light 15h 30m
Length of Day
14h 30m
Waning Gibbous, 62% of the Moon is Illuminated
Jun 18
Waning Gibbous
Jun 19
Last Quarter
Jun 27
New
Jul 5
First Quarter
Jul 12
Full

Hourly Weather History & Observations

Time (CDT) Temp. Heat Index Dew Point Humidity Pressure Visibility Wind Dir Wind Speed Gust Speed Precip Events Conditions
12:54 AM 80.1 °F 83.6 °F 71.1 °F 74% 30.05 in 10.0 mi South 6.9 mph - N/A   Mostly Cloudy
1:54 AM 78.1 °F - 71.1 °F 79% 30.04 in 10.0 mi South 5.8 mph - N/A   Mostly Cloudy
2:54 AM 78.1 °F - 71.1 °F 79% 30.04 in 10.0 mi SSW 6.9 mph - N/A   Scattered Clouds
3:54 AM 77.0 °F - 71.1 °F 82% 30.04 in 10.0 mi SSW 6.9 mph - N/A   Scattered Clouds
4:54 AM 77.0 °F - 70.0 °F 79% 30.04 in 10.0 mi South 8.1 mph - N/A   Partly Cloudy
5:54 AM 75.9 °F - 70.0 °F 82% 30.05 in 10.0 mi South 8.1 mph - N/A   Partly Cloudy
6:54 AM 78.1 °F - 70.0 °F 76% 30.06 in 10.0 mi SSW 5.8 mph - N/A   Partly Cloudy
7:54 AM 81.0 °F 85.2 °F 72.0 °F 74% 30.06 in 10.0 mi SW 8.1 mph - N/A   Partly Cloudy
8:54 AM 84.0 °F 90.2 °F 73.0 °F 69% 30.08 in 10.0 mi SSW 5.8 mph - N/A   Scattered Clouds
9:54 AM 84.9 °F 92.1 °F 73.9 °F 69% 30.08 in 10.0 mi SW 11.5 mph 20.7 mph N/A   Scattered Clouds
10:54 AM 87.1 °F 95.4 °F 73.9 °F 65% 30.09 in 10.0 mi SW 8.1 mph - N/A   Mostly Cloudy
11:54 AM 86.0 °F 92.2 °F 72.0 °F 63% 30.09 in 10.0 mi SSW 10.4 mph - N/A   Mostly Cloudy
12:54 PM 87.1 °F 92.8 °F 71.1 °F 59% 30.08 in 10.0 mi SW 10.4 mph - N/A   Scattered Clouds
1:54 PM 88.0 °F 93.8 °F 71.1 °F 57% 30.07 in 10.0 mi South 6.9 mph 18.4 mph N/A   Scattered Clouds
2:54 PM 88.0 °F 93.8 °F 71.1 °F 57% 30.05 in 10.0 mi SSW 5.8 mph - N/A   Scattered Clouds
3:09 PM 87.8 °F 93.8 °F 71.6 °F 58% 30.06 in 10.0 mi SW 8.1 mph - N/A Thunderstorm Thunderstorm
3:43 PM 84.2 °F 89.6 °F 71.6 °F 66% 30.06 in 10.0 mi WSW 10.4 mph - N/A   Mostly Cloudy
3:54 PM 82.9 °F 88.0 °F 72.0 °F 69% 30.05 in 10.0 mi WSW 6.9 mph - 0.00 in Rain Light Rain
4:54 PM 90.0 °F 97.9 °F 73.0 °F 57% 30.02 in 10.0 mi South 5.8 mph - 0.00 in   Mostly Cloudy
5:54 PM 88.0 °F 95.6 °F 73.0 °F 61% 30.02 in 10.0 mi WSW 8.1 mph - N/A   Mostly Cloudy
6:54 PM 84.0 °F 89.0 °F 71.1 °F 65% 30.02 in 10.0 mi SSW 5.8 mph 18.4 mph 0.00 in Rain Light Rain
7:54 PM 84.0 °F 89.6 °F 72.0 °F 67% 30.03 in 10.0 mi South 6.9 mph - 0.00 in   Mostly Cloudy
8:54 PM 82.9 °F 87.5 °F 71.1 °F 67% 30.04 in 10.0 mi South 8.1 mph - N/A   Mostly Cloudy
9:54 PM 81.0 °F 84.4 °F 70.0 °F 69% 30.05 in 10.0 mi SSW 5.8 mph - N/A   Scattered Clouds
10:54 PM 79.0 °F - 70.0 °F 74% 30.04 in 10.0 mi SSW 3.5 mph - N/A   Partly Cloudy
11:54 PM 79.0 °F - 70.0 °F 74% 30.04 in 10.0 mi SSW 6.9 mph - N/A   Partly Cloudy